Regional Weather Roundup
Issued by NWS Newport/Morehead, NC

Current Version | Previous Version | Text Only | Print | Product List | Glossary On
Versions: 1 2 3 4 5 6 7 8 9 10 11 12 13 14 15 16 17 18 19 20 21 22 23 24 25 26 27 28 29 30 31 32 33 34 35 36 37 38 39 40 41 42 43 44 45 46 47 48 49 50
000
ASUS42 KMHX 190414
RWRMHX
WEATHER ROUNDUP FOR EASTERN NORTH CAROLINA
NATIONAL WEATHER SERVICE NEWPORT/MOREHEAD CITY NC
1200 AM EDT TUE SEP 19 2017

NOTE: "FAIR" INDICATES FEW OR NO CLOUDS BELOW 12,000 FEET
WITH NO SIGNIFICANT WEATHER AND/OR OBSTRUCTIONS TO VISIBILITY

NCZ015>017-031-032-045>047-102-103-190500-
NORTH COAST

CITY           SKY/WX    TMP DP  RH WIND       PRES   REMARKS
EDENTON        CLOUDY    72  69  89 N8        29.93F
ELIZABETH CITY MOCLDY    73  70  90 N15       29.90F
KITTY HAWK     MOCLDY    72  67  86 N13G26    29.85F
MANTEO         CLOUDY    73  68  87 N17G30    29.86F

$$

NCZ045>047-081-094-103-104-190500-
CENTRAL COAST

CITY           SKY/WX    TMP DP  RH WIND       PRES   REMARKS
FRISCO         MOCLDY    75  71  87 N13G23    29.83F

$$

NCZ095-097-098-100-101-190500-
SOUTHERN COAST

CITY           SKY/WX    TMP DP  RH WIND       PRES   REMARKS
BEAUFORT       CLOUDY    73  71  93 N15       29.90F
CEDAR ISLAND   NOT AVBL
JACKSONVILLE   PTCLDY    72  71  97 NW7       29.93F
PINEY ISLAND     N/A    N/A N/A N/A N17G25    29.90S
WILMINGTON     CLEAR     71  68  90 NW8       29.95S


$$

NCZ011>013-027>030-043-044-078>080-089-090>093-098-190500-
COASTAL PLAIN

CITY           SKY/WX    TMP DP  RH WIND       PRES   REMARKS
AHOSKIE          N/A     69  68  97 N5        29.96S
CLINTON        CLEAR     71  69  94 CALM      29.97F
ELIZABETHTOWN  NOT AVBL
GOLDSBORO      CLEAR     71  71 100 NW3       29.95F
GREENVILLE     CLEAR     72  70  94 N3        29.97F
HAVELOCK       PTCLDY    74  71  91 N14       29.92F
KENANSVILLE    PTCLDY    70  68  94 N5        29.96F
KINSTON        CLEAR     71  68  91 NW6       29.96S
NEW BERN       MOCLDY    72  71  97 NW7       29.94F
RICHLANDS      CLEAR     71  69  93 NW3       29.95F
ROCKY MOUNT    CLEAR     69  68  96 N6        29.97F
WASHINGTON     PTCLDY    71  69  93 NW5       29.94F
WHITEVILLE     CLEAR     71  67  88 CALM      29.97F

$$

AMZ130-135-150-152-154-156-158-170-250-252-270-ANZ085-086-088-633-658-670-190500-
MARINE OBSERVATIONS

STATION/POSITION TIME  TEMP    WIND        PRES    WAVE   SWELL
                       AIR SEA DIR/SP/G            HT/PER HT/PER
                 (UTC) (F)     (DEG/KT/KT) (MB)    (FT/S) (FT/S)
CHESAPEAKE LIGHT NOT AVBL
64 E VA BEACH    0350   72 72  360/ 25/ 31 1008.7   15/12  10/12
DUCK             0348   74 76   10/ 28/ 35 1010.3
2 E DUCK         0400      76                N/A    12/12   8/12
OREGON INLET     0348          340/ 18/ 23   N/A
13E OREGON INLT  0348      74                N/A    13/13  11/13
HATTERAS CG      0342   75 78  350/ 29/ 33 1010.4
DIAMOND BUOY     0350   75 78  340/ 27/ 33 1008.6   12/12  10/12
CAPE LOOKOUT     0400   74     340/ 18/ 22 1011.8
BEAUFORT LAB     0342   74 75  350/ 11/ 16 1012.0
30 SE NEW RVR IN 0308   78      10/ 17/ 23 1012.7
30 SE NEW RVR IN NOT AVBL
27 SE WRIGHTSVLE 0308   77 80   10/ 17/ 23 1013.1
5 SE WRIGHTSVLE  0308   75 78  350/ 12/ 19 1013.7
225 S CAPE HAT   0350   80 80  320/ 17/ 19 1010.7   11/11  10/11
41 SE CHARLESTON 0400   77 82  320/  4/  8 1014.4

$$




USA.gov is the U.S. government's official web portal to all federal, state and local government web resources and services.